EW7239 Weather Reports


Display with metric or nautical units.
time (UTC)temp
F
wind
direction
speed
MPH
gust
MPH
rain 1hr
in
rain 24hr
in
rain mn
in
humidity
%
barometer
mb
20260904052717 68 219 3.0 7.0 0.00 0.00 0.00 75 1013.1
20260904052217 69 219 3.0 7.0 0.00 0.00 0.00 74 1013.1
20260904051713 69 219 3.0 7.0 0.00 0.00 0.00 74 1013.1
20260904051212 69 219 4.0 7.0 0.00 0.00 0.00 73 1013.1
20260904050710 69 219 4.0 7.0 0.00 0.00 0.00 73 1013.1
20260904050209 69 219 4.0 8.0 0.00 0.00 0.00 72 1013.1
20260904045709 69 219 4.0 8.0 0.00 0.00 0.00 71 1013.1
20260904045206 69 219 3.0 6.0 0.00 0.00 0.00 71 1013.0
20260904044205 70 219 4.0 7.0 0.00 0.00 0.00 69 1012.9
20260904043707 70 219 5.0 9.0 0.00 0.00 0.00 69 1012.8
20260904043204 70 219 5.0 10.0 0.00 0.00 0.00 68 1012.8
20260904042705 70 218 5.0 10.0 0.00 0.00 0.00 67 1012.7
20260904042202 71 215 4.0 7.0 0.00 0.00 0.00 65 1012.7
20260904041703 71 215 5.0 10.0 0.00 0.00 0.00 65 1012.7
20260904041203 71 215 6.0 10.0 0.00 0.00 0.00 64 1012.6
20260904040701 71 209 6.0 9.0 0.00 0.00 0.00 64 1012.6
20260904040433 71 221 6.0 10.0 0.00 0.00 0.00 64 1012.3
20260904035701 71 223 6.0 11.0 0.00 0.00 0.00 64 1012.3
20260904035158 71 222 6.0 11.0 0.00 0.00 0.00 65 1012.3
20260904034659 71 227 6.0 10.0 0.00 0.00 0.00 66 1012.2
20260904034156 71 229 6.0 10.0 0.00 0.00 0.00 66 1012.1
20260904033655 71 223 5.0 10.0 0.00 0.00 0.00 66 1012.0
20260904033154 72 234 4.0 10.0 0.00 0.00 0.00 66 1012.0
20260904032925 72 236 5.0 10.0 0.00 0.00 0.00 66 1011.9
20260904032153 72 230 5.0 9.0 0.00 0.00 0.00 66 1011.9
20260904031653 72 227 6.0 13.0 0.00 0.00 0.00 66 1011.8
20260904031153 72 235 6.0 13.0 0.00 0.00 0.00 65 1011.8
20260904030655 72 230 6.0 13.0 0.00 0.00 0.00 65 1011.6
20260904030152 72 226 6.0 13.0 0.00 0.00 0.00 65 1011.6
20260904025653 73 225 6.0 12.0 0.00 0.00 0.00 64 1011.6
20260904025152 73 220 6.0 12.0 0.00 0.00 0.00 64 1011.6
20260904024653 73 235 6.0 12.0 0.00 0.00 0.00 64 1011.6
20260904024153 73 229 5.0 10.0 0.00 0.00 0.00 63 1011.6
20260904023652 74 229 6.0 11.0 0.00 0.00 0.00 62 1011.5
20260904023422 74 237 6.0 11.0 0.00 0.00 0.00 62 1011.5
20260904022652 74 244 5.0 10.0 0.00 0.00 0.00 62 1011.5
20260904022150 74 236 6.0 12.0 0.00 0.00 0.00 61 1011.5
20260904021919 74 232 6.0 12.0 0.00 0.00 0.00 60 1011.5
20260904021148 75 223 6.0 12.0 0.00 0.00 0.00 60 1011.5
20260904020645 75 242 7.0 12.0 0.00 0.00 0.00 59 1011.5
20260904020144 75 225 8.0 12.0 0.00 0.00 0.00 59 1011.5
20260904015643 75 226 7.0 12.0 0.00 0.00 0.00 58 1011.5
20260904015145 76 224 7.0 13.0 0.00 0.00 0.00 58 1011.5
20260904014644 76 224 8.0 14.0 0.00 0.00 0.00 57 1011.5
20260904014416 77 217 8.0 17.0 0.00 0.00 0.00 56 1011.5
20260904013910 77 214 8.0 17.0 0.00 0.00 0.00 55 1011.5
20260904013139 77 219 7.0 14.0 0.00 0.00 0.00 54 1011.5
20260904012910 78 216 8.0 14.0 0.00 0.00 0.00 54 1011.5
20260904012135 78 214 8.0 15.0 0.00 0.00 0.00 53 1011.5
20260904011635 78 226 8.0 15.0 0.00 0.00 0.00 53 1011.5
20260904011136 79 226 8.0 15.0 0.00 0.00 0.00 52 1011.4
20260904010902 79 244 7.0 13.0 0.00 0.00 0.00 51 1011.4
20260904010132 79 217 8.0 15.0 0.00 0.00 0.00 51 1011.3
20260904005633 79 228 9.0 16.0 0.00 0.00 0.00 51 1011.3
20260904005126 80 216 9.0 16.0 0.00 0.00 0.00 49 1011.3
20260904004625 80 219 8.0 16.0 0.00 0.00 0.00 49 1011.3
20260904004126 80 225 8.0 16.0 0.00 0.00 0.00 49 1011.3
20260904003857 80 223 9.0 16.0 0.00 0.00 0.00 49 1011.4
20260904003126 81 209 9.0 16.0 0.00 0.00 0.00 49 1011.3
20260904002625 80 252 10.0 16.0 0.00 0.00 0.00 50 1011.4
20260904002126 81 217 10.0 17.0 0.00 0.00 0.00 50 1011.3
20260904001858 81 229 9.0 17.0 0.00 0.00 0.00 50 1011.4
20260904001123 82 221 9.0 15.0 0.00 0.00 0.00 50 1011.4
20260904000636 82 225 9.0 16.0 0.00 0.00 0.00 49 1011.4
20260904000122 82 226 9.0 16.0 0.00 0.00 0.00 50 1011.4
20260903235852 83 221 8.0 15.0 0.00 0.00 0.00 49 1011.4
20260903235119 83 219 8.0 15.0 0.00 0.00 0.00 49 1011.5
20260903234631 83 224 9.0 16.0 0.00 0.00 0.00 48 1011.5
20260903234117 83 223 9.0 16.0 0.00 0.00 0.00 47 1011.5
20260903233615 83 216 9.0 17.0 0.00 0.00 0.00 48 1011.6
20260903233116 83 225 9.0 17.0 0.00 0.00 0.00 48 1011.6
20260903232615 83 221 9.0 15.0 0.00 0.00 0.00 46 1011.6
20260903232116 84 221 7.0 15.0 0.00 0.00 0.00 46 1011.6
20260903231616 84 219 8.0 16.0 0.00 0.00 0.00 46 1011.6
20260903230610 84 217 9.0 17.0 0.00 0.00 0.00 44 1011.7
20260903230114 85 211 7.0 15.0 0.00 0.00 0.00 43 1011.7
20260903225842 85 230 8.0 15.0 0.00 0.00 0.00 42 1011.6
20260903225109 85 234 8.0 15.0 0.00 0.00 0.00 42 1011.6
20260903224610 86 233 7.0 15.0 0.00 0.00 0.00 40 1011.7
20260903224107 86 225 7.0 13.0 0.00 0.00 0.00 39 1011.7
20260903223834 86 225 7.0 12.0 0.00 0.00 0.00 39 1011.8
20260903223105 86 223 7.0 16.0 0.00 0.00 0.00 38 1011.9
20260903222834 86 209 7.0 16.0 0.00 0.00 0.00 40 1011.9
20260903222104 86 229 6.0 13.0 0.00 0.00 0.00 39 1011.9
20260903221603 86 213 7.0 13.0 0.00 0.00 0.00 38 1012.0
20260903221103 86 226 7.0 13.0 0.00 0.00 0.00 38 1012.1
20260903220833 86 209 7.0 12.0 0.00 0.00 0.00 38 1012.2
20260903220105 87 225 6.0 12.0 0.00 0.00 0.00 38 1012.2
20260903215834 87 232 5.0 12.0 0.00 0.00 0.00 37 1012.2
20260903215101 87 207 6.0 12.0 0.00 0.00 0.00 37 1012.2
20260903214602 87 242 6.0 11.0 0.00 0.00 0.00 38 1012.3
20260903214103 87 207 5.0 11.0 0.00 0.00 0.00 38 1012.5
20260903213600 87 223 5.0 11.0 0.00 0.00 0.00 38 1012.3
20260903213100 87 217 6.0 11.0 0.00 0.00 0.00 36 1012.5
20260903212559 87 229 4.0 9.0 0.00 0.00 0.00 38 1012.3
20260903212329 86 250 3.0 9.0 0.00 0.00 0.00 39 1012.5
20260903211558 86 258 5.0 13.0 0.00 0.00 0.00 38 1012.6
20260903211057 86 209 5.0 13.0 0.00 0.00 0.00 40 1012.6
20260903210558 86 234 4.0 10.0 0.00 0.00 0.00 39 1012.6
20260903210105 85 258 5.0 12.0 0.00 0.00 0.00 39 1012.7
20260903205824 86 240 6.0 12.0 0.00 0.00 0.00 39 1012.7
20260903205047 85 214 6.0 11.0 0.00 0.00 0.00 39 1012.8
20260903204548 85 256 5.0 10.0 0.00 0.00 0.00 41 1012.8
20260903204048 84 221 5.0 10.0 0.00 0.00 0.00 40 1012.9
20260903203549 85 216 5.0 11.0 0.00 0.00 0.00 41 1013.0
20260903203049 84 257 3.0 11.0 0.00 0.00 0.00 41 1013.0
20260903202547 84 246 3.0 8.0 0.00 0.00 0.00 40 1013.1
20260903202047 84 245 4.0 10.0 0.00 0.00 0.00 39 1013.2
20260903201818 84 217 4.0 10.0 0.00 0.00 0.00 38 1013.2
20260903201045 83 218 3.0 7.0 0.00 0.00 0.00 40 1013.2
20260903200546 83 217 3.0 7.0 0.00 0.00 0.00 39 1013.2
20260903200055 83 224 4.0 9.0 0.00 0.00 0.00 39 1013.4
20260903195542 83 225 4.0 9.0 0.00 0.00 0.00 40 1013.6
20260903195314 83 253 4.0 9.0 0.00 0.00 0.00 41 1013.6
20260903194537 83 218 4.0 9.0 0.00 0.00 0.00 40 1013.7
20260903194038 83 266 2.0 7.0 0.00 0.00 0.00 42 1013.7
20260903193538 82 221 2.0 5.0 0.00 0.00 0.00 42 1013.8
20260903193039 81 221 3.0 5.0 0.00 0.00 0.00 43 1013.9
20260903192537 81 221 3.0 7.0 0.00 0.00 0.00 43 1014.0
20260903192036 82 221 3.0 7.0 0.00 0.00 0.00 42 1014.2
20260903191807 81 221 3.0 6.0 0.00 0.00 0.00 43 1014.2
20260903191037 81 208 2.0 6.0 0.00 0.00 0.00 44 1014.3
20260903190806 81 206 2.0 7.0 0.00 0.00 0.00 45 1014.4
20260903190036 80 207 3.0 7.0 0.00 0.00 0.00 45 1014.4
20260903185536 80 208 4.0 7.0 0.00 0.00 0.00 45 1014.5
20260903185308 80 226 3.0 7.0 0.00 0.00 0.00 45 1014.6
20260903184536 80 213 1.0 3.0 0.00 0.00 0.00 46 1014.7
20260903184307 79 213 2.0 9.0 0.00 0.00 0.00 48 1014.8
20260903183536 79 213 3.0 9.0 0.00 0.00 0.00 47 1014.9
20260903183035 79 212 2.0 6.0 0.00 0.00 0.00 45 1015.0
20260903182806 78 213 2.0 6.0 0.00 0.00 0.00 46 1014.9
20260903182036 78 212 2.0 5.0 0.00 0.00 0.00 45 1015.0
20260903181035 77 214 1.0 7.0 0.00 0.00 0.00 50 1015.0
20260903180548 77 215 1.0 7.0 0.00 0.00 0.00 52 1015.0
20260903180306 77 215 3.0 7.0 0.00 0.00 0.00 54 1015.1
20260903175535 76 215 3.0 7.0 0.00 0.00 0.00 53 1015.1
20260903175033 77 216 2.0 6.0 0.00 0.00 0.00 54 1015.2
20260903174532 76 219 2.0 6.0 0.00 0.00 0.00 55 1015.2
20260903174039 75 219 2.0 6.0 0.00 0.00 0.00 56 1015.2
20260903173523 75 219 3.0 5.0 0.00 0.00 0.00 57 1015.3
20260903173024 75 219 3.0 6.0 0.00 0.00 0.00 58 1015.3
20260903172754 74 220 2.0 6.0 0.00 0.00 0.00 59 1015.3
20260903172020 74 221 2.0 6.0 0.00 0.00 0.00 59 1015.4
20260903171520 74 221 3.0 7.0 0.00 0.00 0.00 59 1015.3
20260903171251 74 223 2.0 7.0 0.00 0.00 0.00 59 1015.3
20260903170530 74 223 2.0 5.0 0.00 0.00 0.00 61 1015.3
20260903170248 73 223 3.0 6.0 0.00 0.00 0.00 61 1015.3
20260903165518 73 223 2.0 6.0 0.00 0.00 0.00 61 1015.3
20260903165015 73 223 1.0 4.0 0.00 0.00 0.00 63 1015.3
20260903164744 73 223 1.0 5.0 0.00 0.00 0.00 63 1015.3
20260903164015 72 223 2.0 5.0 0.00 0.00 0.00 65 1015.3
20260903163513 71 223 2.0 5.0 0.00 0.00 0.00 65 1015.3
20260903163012 71 223 2.0 5.0 0.00 0.00 0.00 66 1015.3
20260903162743 71 223 1.0 4.0 0.00 0.00 0.00 67 1015.3
20260903162240 70 223 1.0 4.0 0.00 0.00 0.00 68 1015.3
20260903161509 70 223 2.0 4.0 0.00 0.00 0.00 69 1015.4
20260903160505 69 223 2.0 5.0 0.00 0.00 0.00 71 1015.5
20260903160005 68 223 2.0 5.0 0.00 0.00 0.00 71 1015.5
20260903155500 68 223 2.0 5.0 0.00 0.00 0.00 72 1015.5
20260903154959 68 223 2.0 4.0 0.00 0.00 0.00 72 1015.5
20260903154500 67 223 2.0 5.0 0.00 0.00 0.00 73 1015.5
20260903153959 67 223 2.0 5.0 0.00 0.00 0.00 73 1015.5
20260903153457 67 223 2.0 4.0 0.00 0.00 0.00 73 1015.6
20260903152957 67 223 1.0 4.0 0.00 0.00 0.00 74 1015.6
20260903152459 67 223 2.0 4.0 0.00 0.00 0.00 75 1015.6
20260903151956 66 223 2.0 4.0 0.00 0.00 0.00 75 1015.5
20260903151725 66 223 1.0 4.0 0.00 0.00 0.00 76 1015.5
20260903150954 66 223 1.0 4.0 0.00 0.00 0.00 77 1015.4
20260903150452 65 223 1.0 4.0 0.00 0.00 0.00 78 1015.5
20260903145951 65 223 2.0 4.0 0.00 0.00 0.00 78 1015.5
20260903145450 65 223 1.0 3.0 0.00 0.00 0.00 79 1015.5
20260903144951 65 223 0.0 3.0 0.00 0.00 0.00 80 1015.5
20260903144448 64 223 1.0 3.0 0.00 0.00 0.00 80 1015.4
20260903143946 64 223 1.0 3.0 0.00 0.00 0.00 81 1015.3
20260903143446 64 223 0.0 2.0 0.00 0.00 0.00 81 1015.2
20260903143211 64 223 0.0 2.0 0.00 0.00 0.00 82 1015.1
20260903142437 63 223 0.0 3.0 0.00 0.00 0.00 82 1015.1
20260903141939 63 223 0.0 3.0 0.00 0.00 0.00 82 1015.0
20260903141707 63 223 0.0 0.0 0.00 0.00 0.00 83 1014.9
20260903140933 62 223 0.0 0.0 0.00 0.00 0.00 83 1014.8
20260903140435 62 223 0.0 0.0 0.00 0.00 0.00 83 1014.8
20260903135933 62 223 0.0 0.0 0.00 0.00 0.00 82 1014.8
20260903135702 62 223 0.0 0.0 0.00 0.00 0.00 82 1014.7
20260903134930 62 223 0.0 0.0 0.00 0.00 0.00 82 1014.7
20260903134658 62 223 0.0 0.0 0.00 0.00 0.00 82 1014.7
20260903134156 62 223 0.0 0.0 0.00 0.00 0.00 82 1014.6
20260903133426 62 223 0.0 0.0 0.00 0.00 0.00 82 1014.6
20260903132919 62 223 0.0 0.0 0.00 0.00 0.00 82 1014.6
20260903132419 62 223 0.0 0.0 0.00 0.00 0.00 82 1014.6
20260903131920 62 223 0.0 0.0 0.00 0.00 0.00 81 1014.6
20260903131646 62 223 0.0 0.0 0.00 0.00 0.00 81 1014.7
20260903130913 62 223 0.0 0.0 0.00 0.00 0.00 81 1014.6
20260903130414 62 223 0.0 0.0 0.00 0.00 0.00 81 1014.7
20260903125910 62 223 0.0 0.0 0.00 0.00 0.00 81 1014.7
20260903125410 62 223 0.0 0.0 0.00 0.00 0.00 81 1014.6
20260903125142 62 223 0.0 0.0 0.00 0.00 0.00 81 1014.7
20260903124407 62 223 0.0 0.0 0.00 0.00 0.00 81 1014.7
20260903123908 62 223 0.0 0.0 0.00 0.00 0.00 81 1014.7
20260903123408 62 223 0.0 0.0 0.00 0.00 0.00 81 1014.7
20260903122908 62 223 0.0 0.0 0.00 0.00 0.00 81 1014.6
20260903122405 62 223 0.0 0.0 0.00 0.00 0.00 81 1014.6
20260903122135 62 223 0.0 0.0 0.00 0.00 0.00 80 1014.7
20260903121405 62 223 0.0 0.0 0.00 0.00 0.00 80 1014.6
20260903120915 63 223 0.0 0.0 0.00 0.00 0.00 80 1014.7
20260903120359 63 223 0.0 0.0 0.00 0.00 0.00 80 1014.7
20260903115900 63 223 0.0 0.0 0.00 0.00 0.00 80 1014.7
20260903115357 63 223 0.0 0.0 0.00 0.00 0.00 80 1014.7
20260903114627 63 223 0.0 0.0 0.00 0.00 0.00 80 1014.8
20260903114125 63 223 0.0 0.0 0.00 0.00 0.00 79 1014.8
20260903113353 63 223 0.0 0.0 0.00 0.00 0.00 79 1014.9
20260903113136 63 223 0.0 0.0 0.00 0.00 0.00 79 1014.9
20260903112349 63 223 0.0 0.0 0.00 0.00 0.00 79 1014.8
20260903111849 63 223 0.0 0.0 0.00 0.00 0.00 78 1014.8
20260903111348 64 223 0.0 0.0 0.00 0.00 0.00 78 1014.9
20260903110854 64 223 0.0 0.0 0.00 0.00 0.00 78 1014.9
20260903110339 64 223 0.0 1.0 0.00 0.00 0.00 78 1015.0
20260903105840 64 223 0.0 1.0 0.00 0.00 0.00 78 1014.9
20260903105336 64 223 0.0 3.0 0.00 0.00 0.00 78 1015.0
20260903105108 64 223 0.0 3.0 0.00 0.00 0.00 78 1015.1
20260903104336 64 223 0.0 1.0 0.00 0.00 0.00 78 1015.0
20260903103833 64 223 0.0 2.0 0.00 0.00 0.00 78 1015.0
20260903102833 64 223 0.0 1.0 0.00 0.00 0.00 77 1014.9
20260903102606 64 223 0.0 2.0 0.00 0.00 0.00 77 1015.1
20260903101835 64 223 0.0 2.0 0.00 0.00 0.00 77 1015.1
20260903101335 64 223 0.0 2.0 0.00 0.00 0.00 77 1015.1
20260903100834 64 223 1.0 2.0 0.00 0.00 0.00 77 1015.1
20260903100332 64 223 0.0 2.0 0.00 0.00 0.00 77 1015.1
20260903095832 64 223 0.0 1.0 0.00 0.00 0.00 76 1015.1
20260903095333 64 223 0.0 2.0 0.00 0.00 0.00 76 1015.1
20260903094833 65 223 0.0 2.0 0.00 0.00 0.00 76 1015.0
20260903094332 65 223 0.0 3.0 0.00 0.00 0.00 76 1015.2
20260903093833 65 223 1.0 3.0 0.00 0.00 0.00 76 1015.2
20260903093332 65 223 1.0 3.0 0.00 0.00 0.00 75 1015.2
20260903092826 65 223 1.0 3.0 0.00 0.00 0.00 75 1015.2
20260903092324 65 223 1.0 3.0 0.00 0.00 0.00 75 1015.3
20260903091825 65 223 1.0 3.0 0.00 0.00 0.00 74 1015.4
20260903091323 65 223 1.0 4.0 0.00 0.00 0.00 74 1015.4
20260903090825 65 223 1.0 4.0 0.00 0.00 0.00 74 1015.5
20260903090554 65 223 1.0 3.0 0.00 0.00 0.00 73 1015.5
20260903090052 65 223 1.0 3.0 0.00 0.00 0.00 73 1015.5
20260903085323 65 223 1.0 4.0 0.00 0.00 0.00 73 1015.6
20260903085054 65 223 1.0 4.0 0.00 0.00 0.00 73 1015.6
20260903084836 65 223 1.0 4.0 0.00 0.00 0.00 73 1015.6
20260903084322 65 223 2.0 3.0 0.00 0.00 0.00 73 1015.6
20260903083821 65 223 2.0 3.0 0.00 0.00 0.00 73 1015.7
20260903083550 65 223 1.0 3.0 0.00 0.00 0.00 73 1015.7
20260903083335 65 223 1.0 3.0 0.00 0.00 0.00 73 1015.7
20260903083051 65 223 2.0 4.0 0.00 0.00 0.00 73 1015.7
20260903082313 65 223 2.0 4.0 0.00 0.00 0.00 73 1015.7
20260903081813 65 223 1.0 4.0 0.00 0.00 0.00 73 1015.8
20260903081314 66 223 2.0 5.0 0.00 0.00 0.00 73 1015.8
20260903080812 66 223 2.0 5.0 0.00 0.00 0.00 73 1015.8
20260903075812 66 223 2.0 4.0 0.00 0.00 0.00 72 1015.7
20260903075312 66 223 2.0 4.0 0.00 0.00 0.00 72 1015.7
20260903074809 66 223 2.0 3.0 0.00 0.00 0.00 72 1015.7
20260903074541 66 223 2.0 3.0 0.00 0.00 0.00 72 1015.7
20260903074039 66 223 2.0 3.0 0.00 0.00 0.00 72 1015.7
20260903072805 66 223 1.0 3.0 0.00 0.00 0.00 72 1015.7
20260903072535 66 223 2.0 3.0 0.00 0.00 0.00 72 1015.7
20260903071803 66 223 1.0 3.0 0.00 0.00 0.00 72 1015.7
20260903071301 66 223 1.0 3.0 0.00 0.00 0.00 72 1015.6
20260903070802 66 223 1.0 3.0 0.00 0.00 0.00 72 1015.6
20260903070303 66 223 0.0 2.0 0.00 0.00 0.00 72 1015.7
20260903070030 66 223 0.0 3.0 0.00 0.00 0.00 72 1015.7
20260903065257 66 223 1.0 3.0 0.00 0.00 0.00 72 1015.7
20260903064758 66 223 1.0 3.0 0.00 0.00 0.00 72 1015.7
20260903064254 67 223 1.0 3.0 0.00 0.00 0.00 72 1015.7
20260903063754 66 223 1.0 3.0 0.00 0.00 0.00 72 1015.7
20260903063255 66 223 1.0 3.0 0.00 0.00 0.00 72 1015.7
20260903062756 66 223 0.0 3.0 0.00 0.00 0.00 72 1015.6
20260903062253 66 223 0.0 3.0 0.00 0.00 0.00 72 1015.7
20260903061753 66 223 1.0 2.0 0.00 0.00 0.00 73 1015.7
20260903061246 66 223 1.0 2.0 0.00 0.00 0.00 74 1015.7
20260903060747 66 223 0.0 1.0 0.00 0.00 0.00 72 1015.7
20260903060246 66 223 0.0 1.0 0.00 0.00 0.00 73 1015.7
20260903055746 67 223 0.0 2.0 0.00 0.00 0.00 73 1015.7
20260903055245 67 223 0.0 2.0 0.00 0.00 0.00 73 1015.7
20260903054745 67 223 0.0 1.0 0.00 0.00 0.00 72 1015.7
20260903054245 67 223 1.0 5.0 0.00 0.00 0.00 73 1015.7
20260903054014 67 223 1.0 5.0 0.00 0.00 0.00 73 1015.6